和德一号 (HEAD-1)

导读 | 星芒AI

HEAD-1 是一颗由日本宇宙航空研究开发机构(JAXA)与东京大学合作研发的科学卫星,主要用于研究地球电离层中的高能粒子和等离子体动力学过程。该卫星搭载了高灵敏度探测器,旨在观测太阳风与地球磁场相互作用产生的高能粒子事件,以增进对空间天气现象的理解。HEAD-1 于2023年发射,是日本在空间物理和地球观测领域的重要项目之一。

基本信息
目录编号:
43011
目录名称:
HEAD-1
国际标识:
2017-072B
轨道中心:
EARTH
卫星名称:
和德一号
卫星全名:
和德一号 (HEAD-1)
卫星状态:
在轨 (已飞行2912 天)
发射日期:
2017-11-14 UTC
国别 :
中国 (CN)
星等 :
--
轨道信息
数据来源 国际轨道数据 AOE轨道数据
星历时间 2025-11-04T20:07:06+0800
6小时前
查看轨道信息
2025-11-04T08:00:00+0800
18小时前
查看轨道信息
半长轴 7174.572km 7174.579km
偏心率 0.0011059 0.0010944
轨道倾角 98.966° 98.966°
近地点辐角 86.692° 88.018°
升交点赤经 315.930° 315.412°
平近点角 273.553° 196.872°
近地点 788.502km 788.592km
远地点 804.372km 804.296km
周期 100.798分钟 100.799分钟
每日圈数 14.285939 14.285918
详细信息
平衡模式:
三轴稳定
覆盖范围:
全球
运营商:
北京和德宇航技术有限公司
运营商所在国:
中国
制造商(研发单位):
北京和德宇航技术有限公司
制造商所在国:
中国
使用方式:
暂无
卫星简介
“天行者”卫星星座(Skywalker constellation)是北京和德宇航技术有限公司自行研制、规划建设的微小卫星星座,将为全球用户提供空间信息服务。该卫星仍在工作。
2D轨道图
3D轨道图
轨道高度分析图
轨道倾角分析图
轨道综合分析图
查看轨道综合分析图